Tracking 19709 objects as of 21-Jun-2019
HD Live streaming from Space Station
objects crossing your sky now

FENGYUN 1C DEB

Track FENGYUN 1C DEB now!
10-day predictions


NORAD ID: 31643
Int'l Code: 1999-025CAZ
Perigee: 833.6 km
Apogee: 983.3 km
Inclination: 98.3 °
Period: 103.0 minutes
Semi major axis: 7279 km
RCS: 0.0065 m2 (small)
Launch date: May 10, 1999
Source: People's Republic of China (PRC)
Launch site: Taiyaun Space Center, China (TSC)

Note: This is SATELLITE DEBRIS
aabbcc
Your satellite tracking list
Your tracking list is empty




NASA's NSSDC Master Catalog

Two Line Element Set (TLE):
1 31643U 99025CAZ 19165.79031431  .00000541  00000-0  39087-3 0  9992
2 31643  98.3457 153.8901 0102852 140.5920 342.0488 13.97828654616747
Source of the keplerian elements: AFSPC